Regional Weather Roundup
Issued by NWS

Home | Current Version | Previous Version | Graphics & Text | Print | Product List | Glossary Off
Versions: 1 2 3 4 5 6 7 8 9 10 11 12 13 14 15 16 17 18 19 20 21 22 23 24 25 26 27 28 29 30 31 32 33 34 35 36 37 38 39 40 41 42 43 44 45 46 47 48 49 50

472
ASUS43 KDTX 300201
RWRMI
MICHIGAN HOURLY REGIONAL WEATHER ROUNDUP
NATIONAL WEATHER SERVICE DETROIT/PONTIAC MI
1000 PM EDT SAT APR 29 2017

NOTE: "FAIR" INDICATES FEW OR NO CLOUDS BELOW 12,000 FEET WITH NO
SIGNIFICANT WEATHER AND/OR OBSTRUCTION TO VISIBILITY.

MIZ047>049-052>055-059>063-066>070-074>076-081>083-300300-
SOUTHEAST LOWER MICHIGAN

CITY           SKY/WX    TMP DP  RH WIND       PRES   REMARKS
ADRIAN         CLOUDY    46  36  68 E13       30.18S
ALMA           CLOUDY    43  39  85 NE14      30.26S
ANN ARBOR      CLOUDY    47  32  56 NE12      30.20R
BAD AXE        LGT RAIN  41  31  67 NE7       30.27F
CARO           CLOUDY    41  33  75 NE6       30.27R
DETROIT CITY   CLOUDY    44  30  57 NE13      30.24R
DETROIT        CLOUDY    47  30  51 NE9       30.22R
FLINT          CLOUDY    45  32  60 NE14      30.28R
GROSSE ILE     CLOUDY    45  32  62 NE14G21   30.21R
HILLSDALE      CLOUDY    46  32  57 NE16G22   30.13F
HOWELL         CLOUDY    47  29  48 NE12      30.24R

CITY           SKY/WX    TMP DP  RH WIND       PRES   REMARKS
JACKSON        CLOUDY    49  32  52 E18G25    30.18S
LAMBERTVILLE   CLOUDY    45  33  63 E8        30.18S
LANSING        CLOUDY    47  36  65 NE7       30.23R
LAPEER         CLOUDY    41  32  69 NE10      30.25F
MASON          CLOUDY    48  35  60 NE13G18   30.21R
MONROE         CLOUDY    46  33  60 NE9G16    30.19S
MT. CLEMENS    CLOUDY    42  32  68 N12       30.23R
PONTIAC        CLOUDY    45  29  53 NE13      30.21R
PORT HOPE        N/A     43  33  68 NE8       30.29F
PORT HURON     CLOUDY    39  30  70 N7        30.26S WCI  34
TRI CITIES     LGT RAIN  43  36  76 NE9       30.29R
MIDLAND        CLOUDY    44  34  68 E7        30.29R
TROY           CLOUDY    45  29  55 NE12      30.25S
SAGINAW HB     CLOUDY    43  34  70 NE9       30.29R
$$
MIZ043>046-050>051-056>058-064>065-071>073-077>080-300300-
SOUTHWEST LOWER MICHIGAN

CITY           SKY/WX    TMP DP  RH WIND       PRES   REMARKS
BATTLE CREEK   CLOUDY    49  43  80 E13       30.14F
BENTON HARBOR  RAIN      47  44  90 NE9G20    30.10S
BIG RAPIDS     RAIN      44  40  85 E12       30.22F
COLDWATER      CLOUDY    49  37  63 E15G21    30.13S
FREMONT        DRIZZLE   45  42  88 E8        30.21S
HOLLAND        LGT RAIN  46  40  79 E12G25    30.19R
GRAND RAPIDS   LGT RAIN  45  41  86 NE15      30.19F
IONIA          CLOUDY    44  38  81 NE15      30.21R
KALAMAZOO      LGT RAIN  50  40  68 NE12      30.14F
LUDINGTON      LGT RAIN  43  34  69 NE7       30.21F
MARSHALL       CLOUDY    50  36  58 E12G22    30.15S
MOUNT PLEASANT CLOUDY    42  36  79 NE6       30.28R
MUSKEGON       LGT RAIN  47  43  86 E12       30.19F
SOUTH HAVEN    LGT RAIN  45  43  94 NE12G20   30.12F
$$
MIZ016>042-300300-
NORTHERN LOWER MICHIGAN

CITY           SKY/WX    TMP DP  RH WIND       PRES   REMARKS
ALPENA         CLOUDY    46  30  53 NW5       30.31R
BEAVER ISLAND  CLOUDY    41  27  58 NE9       30.31R
BELLAIRE       CLOUDY    44  31  61 CALM      30.28R
CADILLAC       CLOUDY    43  30  61 NE8       30.22F
CHARLEVOIX     CLOUDY    45  32  61 E6        30.32R
FRANKFORT      CLOUDY    45  26  47 NE7       30.25F
GAYLORD        CLOUDY    46  27  47 NE6       30.27S
GRAYLING       CLOUDY    46  26  45 E9        30.28R
HARBOR SPRINGS CLOUDY    44  26  49 NE10      30.30R
HOUGHTON LAKE  CLOUDY    45  33  63 E6        30.27S
MANISTEE       CLOUDY    46  26  45 NE12G21   30.22F
OSCODA         CLOUDY    46  32  57 NE5       30.28S
PELLSTON       MOCLDY    43  25  49 NE3       30.31R
ROGERS CITY    CLOUDY    43  30  59 CALM      30.31R
TRAVERSE CITY  CLOUDY    42  33  70 NE7       30.26S
$$
MIZ007>008-015-300300-
EASTERN UPPER MICHIGAN

CITY           SKY/WX    TMP DP  RH WIND       PRES   REMARKS
KINROSS        MOCLDY    38  26  62 N9        30.29R WCI  31
MACKINAC ISLAN CLOUDY    38  28  65 N9        30.30R WCI  32
NEWBERRY       PTCLDY    35  27  74 CALM      30.30R
S. S. MARIE    CLOUDY    41  28  60 NW5       30.27S
MUNISING         N/A     37  31  78 NE7       30.31S WCI  32
$$
MIZ004>006-011>014-085-300300-
CENTRAL UPPER MICHIGAN

CITY           SKY/WX    TMP DP  RH WIND       PRES   REMARKS
MANISTIQUE     CLOUDY    37  27  67 N8        30.30R WCI  31
ESCANABA       MOCLDY    39  26  59 NE8       30.32R WCI  33
MENOMINEE      CLOUDY    44  28  53 E14G23    30.29
SAWYER-GWINN   CLEAR     32  27  80 NE7       30.30R WCI  26
$$
MIZ001>003-009>011-084-300300-
WESTERN UPPER MICHIGAN

CITY           SKY/WX    TMP DP  RH WIND       PRES   REMARKS
IRON MOUNTAIN  MOCLDY    42  18  37 NE5       30.28R
HOUGHTON       CLOUDY    38  13  35 NE3       30.30R
COPPER HARBOR    N/A     35  23  61 CALM      30.32S
IRONWOOD       CLOUDY    38  17  42 E8        30.28S WCI  32
$$

ABBREVIATIONS USED IN REMARKS
   TC - TEMPERATURE IN CELSIUS
  WCI - WIND CHILL INDEX
   HX - HEAT INDEX
  VSB - VISIBILITY





USA.gov is the U.S. government's official web portal to all federal, state and local government web resources and services.